Simultaneous Nadir Overpasses (SNOs) Predictions

Prediction of SNOs between AQUA and METOP-B Satellite Orbit:

Table of predicted SNOs for the next 14.0 days since TLE Epoch: 11/13/2015
Index Date (AQUA) Time (AQUA) Lat,Lon (AQUA) SZA (AQUA ) Date (METOP-B) Time (METOP-B) Lat,Lon (METOP-B) SZA (METOP-B ) Distance(km) Time Diff (sec)
1 11/14/2015 16:57:19 73.79, -80.04 91.97 11/14/2015 16:56:55 73.76, -80.00 91.94 3.25 24
2 11/14/2015 17:46:45 -73.82, 87.53 88.00 11/14/2015 17:47:35 -73.84, 87.53 87.97 2.80 50
3 11/17/2015 11:41:53 -73.27, 179.86 87.86 11/17/2015 11:40:45 -73.22, 177.86 87.89 64.33 68
4 11/17/2015 12:31:30 73.77, -13.56 92.66 11/17/2015 12:31:14 73.76, -13.59 92.65 1.62 16
5 11/17/2015 13:20:57 -73.85, 153.91 87.26 11/17/2015 13:21:54 -73.85, 153.94 87.26 0.97 57
6 11/20/2015 07:16:11 -73.59,-114.36 86.87 11/20/2015 07:14:59 -73.52,-115.07 86.93 23.81 72
7 11/20/2015 08:05:42 73.78, 52.87 93.34 11/20/2015 08:05:33 73.80, 52.92 93.36 2.63 9
8 11/20/2015 08:55:09 -73.85,-139.65 86.59 11/20/2015 08:56:14 -73.84,-139.65 86.60 1.10 65
9 11/23/2015 02:50:25 -73.73, -48.20 86.11 11/23/2015 02:49:15 -73.71, -48.22 86.13 2.27 70
10 11/23/2015 03:39:53 73.76, 119.36 93.94 11/23/2015 03:39:53 73.78, 119.30 93.96 2.90 0
11 11/23/2015 04:29:20 -73.83, -73.15 85.99 11/23/2015 04:30:34 -73.83, -73.26 85.99 3.58 74
12 11/25/2015 22:24:35 -73.73, 18.24 85.53 11/25/2015 22:23:33 -73.74, 18.27 85.52 1.28 62
13 11/25/2015 23:14:04 73.83,-174.33 94.58 11/25/2015 23:14:11 73.81,-174.22 94.56 3.80 7




NCC Satellite Simultaneous Nadir Overpasses (SNOs) Prediction Service
